Blackbird Creek Townsend DE USA current weather conditions

sailwx.info

Wind from 237 at 3 knots gusting 3

Air temperature 18.0° C

Last reported at 2020-Sep-25 14:00 UTC.
Time now 2020-Sep-25 14:47 UTC

Location: N 39°24' W 075°38'.
View on Google Maps.

See reports from other nearby stations

  
Tides and Currents Weather Stations Pressure Air Temp Water Temp Dewpoint Dewpoint Depression Visibility Wind Speed Wind Dir Waves Ship Positions
date/time (UTC)wind fromknots sea level pressurealtimeterstation pressurevisibilityair tempwater tempwave heightnotes
2020-Sep-25 14:00 237 3 gusting 3 18.0
2020-Sep-25 13:55 241 3 gusting 4 17.9
2020-Sep-25 13:50 235 3 gusting 4 17.8
2020-Sep-25 13:45 234 2 gusting 4 17.7
2020-Sep-25 13:40 237 4 gusting 5 17.6
2020-Sep-25 13:35 250 3 gusting 6 17.5
2020-Sep-25 13:30 260 3 gusting 5 17.5
2020-Sep-25 13:25 257 3 gusting 5 17.4
2020-Sep-25 13:20 247 2 gusting 4 17.2
2020-Sep-25 13:15 249 3 gusting 5 17.1
2020-Sep-25 13:10 244 3 gusting 4 17.0
2020-Sep-25 13:05 244 3 gusting 4 16.8
2020-Sep-25 13:00 237 2 gusting 4 16.7
2020-Sep-25 12:55 249 3 gusting 4 16.6
2020-Sep-25 12:50 256 3 gusting 4 16.5
2020-Sep-25 12:45 243 2 gusting 3 16.4
2020-Sep-25 12:40 255 3 gusting 4 16.3
2020-Sep-25 12:35 251 1 gusting 2 16.3
2020-Sep-25 12:30 243 2 gusting 3 16.1
2020-Sep-25 12:25 253 2 gusting 3 15.9
2020-Sep-25 12:20 244 2 gusting 3 15.8
2020-Sep-25 12:15 236 1 gusting 3 15.7
2020-Sep-25 12:10 260 1 gusting 2 15.6
2020-Sep-25 12:05 223 0 gusting 2 15.5
2020-Sep-25 12:00 253 0 gusting 1 15.4
2020-Sep-25 11:55 298 0 gusting 0 15.3
2020-Sep-25 11:50 288 0 gusting 1 15.2
2020-Sep-25 11:45 264 1 gusting 1 15.1
2020-Sep-25 11:40 262 0 gusting 1 15.0
2020-Sep-25 11:35 268 1 gusting 2 14.9
2020-Sep-25 11:30 268 1 gusting 2 14.9
2020-Sep-25 11:25 292 1 gusting 1 14.9
2020-Sep-25 11:20 275 1 gusting 2 14.9
2020-Sep-25 11:15 247 1 gusting 3 14.9
2020-Sep-25 11:10 242 2 gusting 3 14.9
2020-Sep-25 11:05 238 2 gusting 3 14.8
2020-Sep-25 11:00 242 2 gusting 2 14.7
2020-Sep-25 10:55 246 2 gusting 3 14.7
2020-Sep-25 10:50 269 1 gusting 3 14.6
2020-Sep-25 10:45 244 0 gusting 1 14.6
2020-Sep-25 10:40 212 0 gusting 1 14.5
2020-Sep-25 10:35 257 0 gusting 1 14.5
2020-Sep-25 10:30 259 0 gusting 1 14.6
2020-Sep-25 10:25 248 1 gusting 2 14.7
2020-Sep-25 10:20 251 1 gusting 2 14.7
2020-Sep-25 10:15 265 1 gusting 2 14.7
2020-Sep-25 10:10 284 1 gusting 1 14.7
2020-Sep-25 10:05 258 1 gusting 2 14.6
2020-Sep-25 10:00 242 1 gusting 1 14.5
2020-Sep-25 09:55 234 1 gusting 1 14.4
2020-Sep-25 09:50 252 0 gusting 1 14.5
2020-Sep-25 09:45 253 0 gusting 1 14.6
2020-Sep-25 09:40 257 0 gusting 0 14.6
2020-Sep-25 09:35 253 0 gusting 0 14.5
2020-Sep-25 09:30 256 0 gusting 0 14.3
2020-Sep-25 09:25 14.5
2020-Sep-25 09:20 14.6
2020-Sep-25 09:15 14.3
2020-Sep-25 09:10 14.1
2020-Sep-25 09:05 14.1
2020-Sep-25 09:00 14.1
2020-Sep-25 08:55 14.1
2020-Sep-25 08:50 315 0 gusting 0 14.1
2020-Sep-25 08:45 307 0 gusting 0 14.1
2020-Sep-25 08:40 054 0 gusting 0 14.5
2020-Sep-25 08:35 054 0 gusting 0 14.6
2020-Sep-25 08:30 14.3
2020-Sep-25 08:25 172 0 gusting 1 14.2
2020-Sep-25 08:20 198 0 gusting 1 14.1
2020-Sep-25 08:15 005 0 gusting 0 14.4
2020-Sep-25 08:10 302 0 gusting 0 14.6
2020-Sep-25 08:05 298 0 gusting 0 14.2
2020-Sep-25 08:00 14.5
2020-Sep-25 07:55 14.7
2020-Sep-25 07:50 14.6
2020-Sep-25 07:45 14.4
2020-Sep-25 07:40 14.3
2020-Sep-25 07:35 14.3
2020-Sep-25 07:30 14.5
2020-Sep-25 07:25 158 0 gusting 0 14.8
2020-Sep-25 07:20 158 1 gusting 1 14.7
2020-Sep-25 07:15 158 0 gusting 0 14.6
2020-Sep-25 07:10 14.8
2020-Sep-25 07:05 14.8
2020-Sep-25 07:00 297 0 gusting 0 15.2
2020-Sep-25 06:55 297 0 gusting 0 15.4
2020-Sep-25 06:50 15.2
2020-Sep-25 06:45 15.1
2020-Sep-25 06:40 281 0 gusting 0 15.6
2020-Sep-25 06:35 281 0 gusting 0 15.8
2020-Sep-25 06:30 266 0 gusting 1 15.7
2020-Sep-25 06:25 259 0 gusting 1 15.7
2020-Sep-25 06:20 274 1 gusting 1 15.9
2020-Sep-25 06:15 300 0 gusting 1 15.9
2020-Sep-25 06:10 294 0 gusting 1 15.9
2020-Sep-25 06:05 277 0 gusting 0 15.9
2020-Sep-25 06:00 271 0 gusting 1 15.9
2020-Sep-25 05:55 207 0 gusting 2 16.0
2020-Sep-25 05:50 205 1 gusting 2 16.1
2020-Sep-25 05:45 217 1 gusting 1 16.0
2020-Sep-25 05:40 255 1 gusting 2 15.8
2020-Sep-25 05:35 254 1 gusting 1 15.9
2020-Sep-25 05:30 250 1 gusting 2 16.0
2020-Sep-25 05:25 245 1 gusting 3 15.9
2020-Sep-25 05:20 253 1 gusting 2 15.9
2020-Sep-25 05:15 243 2 gusting 3 16.0
2020-Sep-25 05:10 240 2 gusting 3 16.0
2020-Sep-25 05:05 238 2 gusting 3 16.0
2020-Sep-25 05:00 234 2 gusting 3 16.0
2020-Sep-25 04:55 255 2 gusting 3 15.9
2020-Sep-25 04:50 267 2 gusting 3 15.9
2020-Sep-25 04:45 259 1 gusting 2 15.9
2020-Sep-25 04:40 266 1 gusting 2 15.9
2020-Sep-25 04:35 251 2 gusting 2 15.9
2020-Sep-25 04:30 265 2 gusting 3 15.9
2020-Sep-25 04:25 272 1 gusting 2 15.9
2020-Sep-25 04:20 259 1 gusting 3 15.9
2020-Sep-25 04:15 229 2 gusting 3 16.0
2020-Sep-25 04:10 236 3 gusting 4 15.9
2020-Sep-25 04:05 249 2 gusting 4 15.9
2020-Sep-25 04:00 215 1 gusting 3 15.8
2020-Sep-25 03:55 245 0 gusting 2 15.8
2020-Sep-25 03:50 291 0 gusting 1 15.8
2020-Sep-25 03:45 221 1 gusting 1 15.7
2020-Sep-25 03:40 246 0 gusting 1 15.7
2020-Sep-25 03:35 255 1 gusting 2 15.6
2020-Sep-25 03:30 262 2 gusting 3 15.6
2020-Sep-25 03:25 271 1 gusting 2 15.6
2020-Sep-25 03:20 250 1 gusting 2 15.8
2020-Sep-25 03:15 251 1 gusting 1 15.8
2020-Sep-25 03:10 294 1 gusting 2 16.2
2020-Sep-25 03:05 284 1 gusting 2 16.0
2020-Sep-25 03:00 252 1 gusting 1 15.8
2020-Sep-25 02:55 243 1 gusting 1 15.7
2020-Sep-25 02:50 248 1 gusting 2 15.8
2020-Sep-25 02:45 283 1 gusting 2 16.3
2020-Sep-25 02:40 284 1 gusting 2 16.3
2020-Sep-25 02:35 269 1 gusting 1 16.4
2020-Sep-25 02:30 247 1 gusting 2 16.5
2020-Sep-25 02:25 227 1 gusting 2 16.4
2020-Sep-25 02:20 220 1 gusting 2 16.4
2020-Sep-25 02:15 209 1 gusting 2 16.4
2020-Sep-25 02:10 204 1 gusting 3 16.0
2020-Sep-25 02:05 262 1 gusting 2 16.0
2020-Sep-25 02:00 237 1 gusting 2 15.5
2020-Sep-25 01:55 239 1 gusting 2 15.7
2020-Sep-25 01:50 258 1 gusting 2 16.1
2020-Sep-25 01:45 264 1 gusting 1 16.1
2020-Sep-25 01:40 306 1 gusting 1 16.0
2020-Sep-25 01:35 308 1 gusting 2 16.0
2020-Sep-25 01:30 306 2 gusting 3 16.4
2020-Sep-25 01:25 304 2 gusting 3 16.7
2020-Sep-25 01:20 292 1 gusting 2 16.5
2020-Sep-25 01:15 247 1 gusting 1 16.1
2020-Sep-25 01:10 228 1 gusting 2 16.0
2020-Sep-25 01:05 248 1 gusting 1 16.2
2020-Sep-25 01:00 265 1 gusting 1 16.5
2020-Sep-25 00:55 279 1 gusting 1 16.7
2020-Sep-25 00:50 302 0 gusting 1 16.9
2020-Sep-25 00:45 291 0 gusting 0 16.9
2020-Sep-25 00:40 304 0 gusting 1 17.3
2020-Sep-25 00:35 301 1 gusting 2 17.2
2020-Sep-25 00:30 294 1 gusting 2 17.5
2020-Sep-25 00:25 292 1 gusting 1 17.3
2020-Sep-25 00:20 286 1 gusting 2 17.7
2020-Sep-25 00:15 291 2 gusting 2 17.8
2020-Sep-25 00:10 271 1 gusting 2 17.8
2020-Sep-25 00:05 268 1 gusting 2 18.0
2020-Sep-25 00:00 268 1 gusting 2 18.0
2020-Sep-24 23:55 258 1 gusting 2 18.1
2020-Sep-24 23:50 240 1 gusting 2 18.2
2020-Sep-24 23:45 241 1 gusting 2 18.3
2020-Sep-24 23:40 227 1 gusting 1 18.4
2020-Sep-24 23:35 253 1 gusting 2 18.4
2020-Sep-24 23:30 264 1 gusting 1 18.4
2020-Sep-24 23:25 257 1 gusting 1 18.6
2020-Sep-24 23:20 215 0 gusting 1 18.7
2020-Sep-24 23:15 209 1 gusting 3 18.8
2020-Sep-24 23:10 229 0 gusting 1 18.8
2020-Sep-24 23:05 227 0 gusting 1 18.8
2020-Sep-24 23:00 270 1 gusting 2 18.9
2020-Sep-24 22:55 273 1 gusting 2 19.0
2020-Sep-24 22:50 254 0 gusting 1 19.2
2020-Sep-24 22:45 244 1 gusting 2 19.3
2020-Sep-24 22:40 274 1 gusting 2 19.4
2020-Sep-24 22:35 263 1 gusting 2 19.7
2020-Sep-24 22:30 252 1 gusting 1 19.9
2020-Sep-24 22:25 233 2 gusting 3 20.0
2020-Sep-24 22:20 237 1 gusting 1 20.1
2020-Sep-24 22:15 252 0 gusting 2 20.2
2020-Sep-24 22:10 204 1 gusting 2 20.2
2020-Sep-24 22:05 218 1 gusting 2 20.3
2020-Sep-24 22:00 213 1 gusting 2 20.4
2020-Sep-24 21:55 199 1 gusting 2 20.5
2020-Sep-24 21:50 245 1 gusting 2 20.7
2020-Sep-24 21:45 259 1 gusting 2 20.8
2020-Sep-24 21:40 243 0 gusting 2 20.7
2020-Sep-24 21:35 206 0 gusting 2 20.6
2020-Sep-24 21:30 201 1 gusting 2 20.7
2020-Sep-24 21:25 234 1 gusting 2 20.8
2020-Sep-24 21:20 239 2 gusting 3 20.8
2020-Sep-24 21:15 235 1 gusting 3 20.8
2020-Sep-24 21:10 255 2 gusting 3 20.8
2020-Sep-24 21:05 234 2 gusting 3 20.8
2020-Sep-24 21:00 231 2 gusting 4 20.8
2020-Sep-24 20:55 222 2 gusting 3 20.9
2020-Sep-24 20:50 233 2 gusting 4 21.0
2020-Sep-24 20:45 232 2 gusting 3 21.1
2020-Sep-24 20:40 215 1 gusting 3 21.1
2020-Sep-24 20:35 226 2 gusting 3 21.1
2020-Sep-24 20:30 216 3 gusting 5 21.1
2020-Sep-24 20:25 220 3 gusting 5 21.3
2020-Sep-24 20:20 206 3 gusting 5 21.4
2020-Sep-24 20:15 214 2 gusting 4 21.5
2020-Sep-24 20:10 214 3 gusting 7 21.5
2020-Sep-24 20:05 223 3 gusting 6 21.6
2020-Sep-24 20:00 207 3 gusting 5 21.6
2020-Sep-24 19:55 212 3 gusting 7 21.8
2020-Sep-24 19:50 223 2 gusting 4 21.9
2020-Sep-24 19:45 212 1 gusting 2 21.9
2020-Sep-24 19:40 172 0 gusting 1 21.9
2020-Sep-24 19:35 168 0 gusting 1 21.8
2020-Sep-24 19:30 127 1 gusting 1 21.7
2020-Sep-24 19:25 145 1 gusting 2 21.7
2020-Sep-24 19:20 148 1 gusting 1 21.8
2020-Sep-24 19:15 188 0 gusting 1 21.8
2020-Sep-24 19:10 167 1 gusting 2 21.7
2020-Sep-24 19:05 173 1 gusting 2 21.8
2020-Sep-24 19:00 181 1 gusting 2 21.8
2020-Sep-24 18:55 209 2 gusting 3 21.7
2020-Sep-24 18:50 212 0 gusting 2 21.7
2020-Sep-24 18:45 091 0 gusting 0 21.5
2020-Sep-24 18:40 107 1 gusting 1 21.2
2020-Sep-24 18:35 134 1 gusting 1 21.3
2020-Sep-24 18:30 128 1 gusting 1 21.3
2020-Sep-24 18:25 140 0 gusting 1 21.6
2020-Sep-24 18:20 21.6
2020-Sep-24 18:15 22.0
2020-Sep-24 18:10 260 0 gusting 1 21.9
2020-Sep-24 18:05 190 0 gusting 1 22.1
2020-Sep-24 18:00 22.1
2020-Sep-24 17:55 21.9
2020-Sep-24 17:50 134 0 gusting 1 21.8
2020-Sep-24 17:45 134 0 gusting 0 21.9
2020-Sep-24 17:40 22.0
2020-Sep-24 17:35 134 0 gusting 0 21.9
2020-Sep-24 17:30 046 0 gusting 1 22.0
2020-Sep-24 17:25 105 0 gusting 0 21.8
2020-Sep-24 17:20 105 0 gusting 0 21.9
2020-Sep-24 17:15 21.7
2020-Sep-24 17:10 105 0 gusting 0 21.1
2020-Sep-24 17:05 21.1
2020-Sep-24 17:00 105 0 gusting 0 21.4
2020-Sep-24 16:55 105 0 gusting 1 21.4
2020-Sep-24 16:50 105 0 gusting 1 21.4
2020-Sep-24 16:45 097 0 gusting 1 21.4
2020-Sep-24 16:40 069 0 gusting 1 21.4
2020-Sep-24 16:35 21.2
2020-Sep-24 16:30 326 0 gusting 1 21.1
2020-Sep-24 16:25 326 0 gusting 0 21.2
2020-Sep-24 16:20 327 0 gusting 0 21.3
2020-Sep-24 16:15 21.4
2020-Sep-24 16:10 21.3
2020-Sep-24 16:05 21.2
2020-Sep-24 16:00 330 0 gusting 0 21.2
2020-Sep-24 15:55 330 0 gusting 1 21.1
2020-Sep-24 15:50 332 0 gusting 1 21.0
2020-Sep-24 15:45 076 0 gusting 1 21.0
2020-Sep-24 15:40 103 1 gusting 2 20.9
2020-Sep-24 15:35 094 1 gusting 2 21.2
2020-Sep-24 15:30 117 0 gusting 1 21.1
2020-Sep-24 15:25 126 0 gusting 1 21.0
2020-Sep-24 15:20 124 1 gusting 1 20.6
2020-Sep-24 15:15 114 1 gusting 2 20.5
2020-Sep-24 15:10 141 1 gusting 2 20.7
2020-Sep-24 15:05 144 0 gusting 1 20.9
2020-Sep-24 15:00 249 0 gusting 0 20.5
2020-Sep-24 14:55 351 0 gusting 1 20.2
2020-Sep-24 14:50 356 0 gusting 1 20.0
2020-Sep-24 14:45 327 0 gusting 1 19.7
2020-Sep-24 14:40 341 2 gusting 3 19.4
2020-Sep-24 14:35 332 1 gusting 3 19.3
2020-Sep-24 14:30 334 0 gusting 1 19.2
2020-Sep-24 14:25 339 0 gusting 1 19.1
2020-Sep-24 14:20 024 0 gusting 1 18.9
2020-Sep-24 14:15 360 0 gusting 1 18.8
2020-Sep-24 14:10 356 0 gusting 1 18.7
2020-Sep-24 14:05 289 0 gusting 1 18.6
2020-Sep-24 14:00 288 0 gusting 0 18.5
2020-Sep-24 13:55 18.3
2020-Sep-24 13:50 341 0 gusting 0 18.2
2020-Sep-24 13:45 335 0 gusting 0 18.0
2020-Sep-24 13:40 341 0 gusting 1 18.0
2020-Sep-24 13:35 345 1 gusting 1 17.8
2020-Sep-24 13:30 360 1 gusting 2 17.7
2020-Sep-24 13:25 338 0 gusting 1 17.5
2020-Sep-24 13:20 324 0 gusting 0 17.3
2020-Sep-24 13:15 320 0 gusting 1 17.3
2020-Sep-24 13:10 276 0 gusting 1 17.1
2020-Sep-24 13:05 274 0 gusting 0 17.0
2020-Sep-24 13:00 241 0 gusting 1 16.6
2020-Sep-24 12:55 326 0 gusting 1 16.2
2020-Sep-24 12:50 303 0 gusting 1 15.9
2020-Sep-24 12:45 267 0 gusting 0 15.8
2020-Sep-24 12:40 15.6
2020-Sep-24 12:35 15.4
2020-Sep-24 12:30 15.3
2020-Sep-24 12:25 328 0 gusting 0 15.1
2020-Sep-24 12:20 312 0 gusting 0 15.0
2020-Sep-24 12:15 306 0 gusting 1 14.8
2020-Sep-24 12:10 254 1 gusting 1 14.6
2020-Sep-24 12:05 273 0 gusting 0 14.5
2020-Sep-24 12:00 262 0 gusting 1 14.3
2020-Sep-24 11:55 14.2
2020-Sep-24 11:50 264 0 gusting 1 14.1
2020-Sep-24 11:45 268 1 gusting 2 13.8
2020-Sep-24 11:40 246 2 gusting 2 13.5
2020-Sep-24 11:35 253 1 gusting 2 13.4
2020-Sep-24 11:30 276 1 gusting 1 13.2
2020-Sep-24 11:25 282 1 gusting 1 13.2
2020-Sep-24 11:20 282 1 gusting 1 13.2
2020-Sep-24 11:15 284 1 gusting 1 13.5
2020-Sep-24 11:10 307 1 gusting 1 13.6
2020-Sep-24 11:05 294 1 gusting 1 13.4
2020-Sep-24 11:00 285 1 gusting 2 13.8
2020-Sep-24 10:55 279 1 gusting 1 13.6
2020-Sep-24 10:50 247 1 gusting 1 13.6
2020-Sep-24 10:45 253 0 gusting 1 13.6
2020-Sep-24 10:40 233 0 gusting 1 13.5
2020-Sep-24 10:35 245 0 gusting 1 13.4
2020-Sep-24 10:30 241 0 gusting 1 13.5
2020-Sep-24 10:25 268 1 gusting 1 13.6
2020-Sep-24 10:20 269 1 gusting 1 13.5
2020-Sep-24 10:15 245 1 gusting 1 13.3
2020-Sep-24 10:10 252 1 gusting 1 13.5
2020-Sep-24 10:05 253 1 gusting 1 13.1
2020-Sep-24 10:00 259 1 gusting 2 12.9
2020-Sep-24 09:55 274 1 gusting 1 13.2
2020-Sep-24 09:50 274 1 gusting 1 13.6
2020-Sep-24 09:45 283 1 gusting 1 13.6
2020-Sep-24 09:40 278 1 gusting 1 13.1
2020-Sep-24 09:35 284 1 gusting 1 13.3
2020-Sep-24 09:30 285 1 gusting 1 13.4
2020-Sep-24 09:25 284 1 gusting 1 13.6
2020-Sep-24 09:20 283 1 gusting 2 13.4
2020-Sep-24 09:15 287 1 gusting 1 13.9
2020-Sep-24 09:10 296 0 gusting 1 13.4
2020-Sep-24 09:05 274 0 gusting 1 13.7
2020-Sep-24 09:00 283 1 gusting 1 14.0
2020-Sep-24 08:55 270 1 gusting 1 13.8
2020-Sep-24 08:50 251 1 gusting 1 13.6
2020-Sep-24 08:45 237 0 gusting 1 13.6
2020-Sep-24 08:40 263 1 gusting 1 13.5
2020-Sep-24 08:35 259 1 gusting 1 13.7
2020-Sep-24 08:30 275 0 gusting 0 14.1
2020-Sep-24 08:25 306 0 gusting 1 14.5
2020-Sep-24 08:20 278 1 gusting 1 14.3
2020-Sep-24 08:15 261 0 gusting 1 14.2
2020-Sep-24 08:10 240 0 gusting 1 14.2
2020-Sep-24 08:05 14.3
2020-Sep-24 08:00 252 0 gusting 0 14.2
2020-Sep-24 07:55 260 1 gusting 1 14.2
2020-Sep-24 07:50 261 1 gusting 1 14.1
2020-Sep-24 07:45 258 1 gusting 2 14.2
2020-Sep-24 07:40 247 1 gusting 1 14.4
2020-Sep-24 07:35 249 1 gusting 1 15.0
2020-Sep-24 07:30 292 0 gusting 1 14.6
2020-Sep-24 07:25 241 1 gusting 2 13.8
2020-Sep-24 07:20 245 1 gusting 2 14.3
2020-Sep-24 07:15 235 1 gusting 2 15.0
2020-Sep-24 07:10 253 1 gusting 1 15.4
2020-Sep-24 07:05 251 0 gusting 1 15.3
2020-Sep-24 07:00 214 1 gusting 2 15.2
2020-Sep-24 06:55 221 1 gusting 2 15.1
2020-Sep-24 06:50 239 1 gusting 1 15.0
2020-Sep-24 06:45 251 1 gusting 2 15.3
2020-Sep-24 06:40 267 1 gusting 2 15.5
2020-Sep-24 06:35 266 1 gusting 2 15.8
2020-Sep-24 06:30 267 2 gusting 2 15.8
2020-Sep-24 06:25 253 2 gusting 2 15.8
2020-Sep-24 06:20 256 1 gusting 2 16.0
2020-Sep-24 06:15 271 1 gusting 3 16.0
2020-Sep-24 06:10 254 1 gusting 3 16.0
2020-Sep-24 06:05 275 3 gusting 4 16.1
2020-Sep-24 06:00 279 3 gusting 3 16.1
2020-Sep-24 05:55 267 3 gusting 4 16.2
2020-Sep-24 05:50 260 3 gusting 4 16.3
2020-Sep-24 05:45 258 3 gusting 4 16.5
2020-Sep-24 05:40 256 3 gusting 4 16.6
2020-Sep-24 05:35 262 3 gusting 5 16.5
2020-Sep-24 05:30 267 3 gusting 5 16.5
2020-Sep-24 05:25 263 3 gusting 5 16.6
2020-Sep-24 05:20 264 3 gusting 5 16.5
2020-Sep-24 05:15 265 3 gusting 4 16.4
2020-Sep-24 05:10 265 3 gusting 4 16.6
2020-Sep-24 05:05 259 3 gusting 4 16.8
2020-Sep-24 05:00 249 3 gusting 4 16.8
2020-Sep-24 04:55 266 4 gusting 5 16.8
2020-Sep-24 04:50 266 4 gusting 5 17.0
2020-Sep-24 04:45 257 4 gusting 5 17.0
2020-Sep-24 04:40 269 4 gusting 6 17.0
2020-Sep-24 04:35 281 4 gusting 7 17.3
2020-Sep-24 04:30 266 4 gusting 6 17.4
2020-Sep-24 04:25 247 4 gusting 6 17.6
2020-Sep-24 04:20 252 4 gusting 5 17.7
2020-Sep-24 04:15 261 5 gusting 6 17.6
2020-Sep-24 04:10 275 5 gusting 7 17.7
2020-Sep-24 04:05 265 4 gusting 6 17.7
2020-Sep-24 04:00 251 5 gusting 6 17.8
2020-Sep-24 03:55 257 5 gusting 7 17.8
2020-Sep-24 03:50 271 6 gusting 8 17.8
2020-Sep-24 03:45 265 5 gusting 7 17.5
2020-Sep-24 03:40 257 4 gusting 6 17.5
2020-Sep-24 03:35 251 4 gusting 6 17.5
2020-Sep-24 03:30 257 4 gusting 6 17.6
2020-Sep-24 03:25 255 4 gusting 6 17.6
2020-Sep-24 03:20 255 4 gusting 5 17.6
2020-Sep-24 03:15 251 4 gusting 6 17.6
2020-Sep-24 03:10 254 4 gusting 5 17.5
2020-Sep-24 03:05 258 4 gusting 5 17.5
2020-Sep-24 03:00 255 4 gusting 5 17.6
2020-Sep-24 02:55 261 3 gusting 4 17.6
2020-Sep-24 02:50 254 3 gusting 5 17.7
2020-Sep-24 02:45 253 4 gusting 5 17.8
2020-Sep-24 02:40 253 4 gusting 5 17.9
2020-Sep-24 02:35 256 4 gusting 5 18.0
2020-Sep-24 02:30 257 4 gusting 6 17.9
2020-Sep-24 02:25 252 4 gusting 6 18.0
2020-Sep-24 02:20 255 4 gusting 6 18.0
2020-Sep-24 02:15 256 3 gusting 5 17.9
2020-Sep-24 02:10 253 3 gusting 5 18.0
2020-Sep-24 02:05 255 3 gusting 5 18.0
2020-Sep-24 02:00 254 3 gusting 5 18.1
2020-Sep-24 01:55 258 3 gusting 5 18.1
2020-Sep-24 01:50 256 3 gusting 5 18.1
2020-Sep-24 01:45 260 3 gusting 5 18.1
2020-Sep-24 01:40 257 3 gusting 4 18.1
2020-Sep-24 01:35 260 3 gusting 5 18.1
2020-Sep-24 01:30 251 3 gusting 5 18.2
2020-Sep-24 01:25 248 3 gusting 6 18.2
2020-Sep-24 01:20 254 3 gusting 4 18.1
2020-Sep-24 01:15 256 2 gusting 3 18.0
2020-Sep-24 01:10 256 3 gusting 4 18.0
2020-Sep-24 01:05 256 3 gusting 4 18.0
2020-Sep-24 01:00 258 3 gusting 4 18.1
2020-Sep-24 00:55 252 3 gusting 4 18.0
2020-Sep-24 00:50 260 3 gusting 4 18.0
2020-Sep-24 00:45 260 3 gusting 4 18.1
2020-Sep-24 00:40 257 2 gusting 4 18.2
2020-Sep-24 00:35 255 2 gusting 3 18.4
2020-Sep-24 00:30 251 3 gusting 3 18.4
2020-Sep-24 00:25 260 3 gusting 4 18.5
2020-Sep-24 00:20 263 3 gusting 4 18.7
2020-Sep-24 00:15 257 3 gusting 3 18.8
2020-Sep-24 00:10 261 3 gusting 4 18.8
2020-Sep-24 00:05 260 3 gusting 4 18.8
2020-Sep-24 00:00 259 3 gusting 3 18.9
2020-Sep-23 23:55 259 2 gusting 3 18.7
2020-Sep-23 23:50 252 2 gusting 3 18.3
2020-Sep-23 23:45 252 2 gusting 3 18.5
2020-Sep-23 23:40 252 2 gusting 2 18.8
2020-Sep-23 23:35 253 2 gusting 2 18.7
2020-Sep-23 23:30 251 2 gusting 2 18.5
2020-Sep-23 23:25 250 2 gusting 2 19.4
2020-Sep-23 23:20 254 1 gusting 1 20.3
2020-Sep-23 23:15 241 1 gusting 2 20.5
2020-Sep-23 23:10 242 1 gusting 2 20.7
2020-Sep-23 23:05 251 2 gusting 3 20.9
2020-Sep-23 23:00 249 2 gusting 3 21.3
2020-Sep-23 22:55 243 2 gusting 2 21.6
2020-Sep-23 22:50 245 2 gusting 4 21.9
2020-Sep-23 22:45 240 2 gusting 4 22.2
2020-Sep-23 22:40 242 2 gusting 4 22.5
2020-Sep-23 22:35 242 3 gusting 4 22.7
2020-Sep-23 22:30 239 3 gusting 6 23.1
2020-Sep-23 22:25 244 3 gusting 5 23.4
2020-Sep-23 22:20 245 3 gusting 4 23.6
2020-Sep-23 22:15 247 5 gusting 8 23.8
2020-Sep-23 22:10 253 4 gusting 5 23.9
2020-Sep-23 22:05 251 5 gusting 7 24.1
2020-Sep-23 22:00 246 4 gusting 6 24.4
2020-Sep-23 21:55 250 4 gusting 6 24.6
2020-Sep-23 21:50 248 4 gusting 6 24.8
2020-Sep-23 21:45 251 4 gusting 7 25.0
2020-Sep-23 21:40 251 3 gusting 6 25.2
2020-Sep-23 21:35 248 3 gusting 6 25.3
2020-Sep-23 21:30 262 3 gusting 5 25.5
2020-Sep-23 21:25 249 3 gusting 5 25.4
2020-Sep-23 21:20 266 4 gusting 6 25.4
2020-Sep-23 21:15 266 5 gusting 6 25.3
2020-Sep-23 21:10 262 7 gusting 11 25.3
2020-Sep-23 21:05 260 5 gusting 10 25.4
2020-Sep-23 21:00 262 3 gusting 5 25.4
2020-Sep-23 20:55 266 5 gusting 7 25.4
2020-Sep-23 20:50 260 5 gusting 9 25.4
2020-Sep-23 20:45 267 5 gusting 9 25.5
2020-Sep-23 20:40 268 5 gusting 8 25.5
2020-Sep-23 20:35 271 7 gusting 12 25.4
2020-Sep-23 20:30 266 7 gusting 10 25.4
2020-Sep-23 20:25 264 8 gusting 11 25.4
2020-Sep-23 20:20 265 5 gusting 8 25.5
2020-Sep-23 20:15 263 8 gusting 12 25.5
2020-Sep-23 20:10 261 5 gusting 9 25.6
2020-Sep-23 20:05 266 6 gusting 10 25.5
2020-Sep-23 20:00 273 7 gusting 11 25.3
2020-Sep-23 19:55 274 7 gusting 11 25.2
2020-Sep-23 19:50 275 8 gusting 11 25.3
2020-Sep-23 19:45 273 7 gusting 10 25.6
2020-Sep-23 19:40 289 6 gusting 8 25.4
2020-Sep-23 19:35 282 7 gusting 10 25.3
2020-Sep-23 19:30 271 8 gusting 13 25.5
2020-Sep-23 19:25 261 5 gusting 9 25.7
2020-Sep-23 19:20 276 5 gusting 8 25.5
2020-Sep-23 19:15 275 8 gusting 11 25.2
2020-Sep-23 19:10 275 7 gusting 13 25.2
2020-Sep-23 19:05 281 7 gusting 9 25.3
2020-Sep-23 19:00 272 6 gusting 9 25.1
2020-Sep-23 18:55 260 6 gusting 12 25.4
2020-Sep-23 18:50 274 7 gusting 11 25.2
2020-Sep-23 18:45 259 7 gusting 10 25.1
2020-Sep-23 18:40 264 8 gusting 13 25.0
2020-Sep-23 18:35 269 7 gusting 10 25.1
2020-Sep-23 18:30 258 7 gusting 11 25.1
2020-Sep-23 18:25 252 7 gusting 10 24.9
2020-Sep-23 18:20 264 7 gusting 12 25.1
2020-Sep-23 18:15 267 5 gusting 9 24.8
2020-Sep-23 18:10 266 7 gusting 10 24.8
2020-Sep-23 18:05 288 6 gusting 9 24.8
2020-Sep-23 18:00 266 8 gusting 12 24.7
2020-Sep-23 17:55 273 7 gusting 11 24.7
2020-Sep-23 17:50 259 7 gusting 9 24.5
2020-Sep-23 17:45 257 6 gusting 11 24.4
2020-Sep-23 17:40 291 8 gusting 12 24.1
2020-Sep-23 17:35 272 8 gusting 12 24.2
2020-Sep-23 17:30 265 7 gusting 12 24.1
2020-Sep-23 17:25 271 6 gusting 11 23.9
2020-Sep-23 17:20 263 8 gusting 12 23.8
2020-Sep-23 17:15 268 7 gusting 11 23.8
2020-Sep-23 17:10 288 6 gusting 11 23.8
2020-Sep-23 17:05 291 6 gusting 9 23.7
2020-Sep-23 17:00 302 7 gusting 10 23.5
2020-Sep-23 16:55 252 7 gusting 9 23.3
2020-Sep-23 16:50 300 8 gusting 11 23.3
2020-Sep-23 16:45 265 7 gusting 11 23.0
2020-Sep-23 16:40 269 8 gusting 11 22.9
2020-Sep-23 16:35 275 7 gusting 10 23.1
2020-Sep-23 16:30 270 6 gusting 9 22.9
2020-Sep-23 16:25 269 7 gusting 12 22.6
2020-Sep-23 16:20 257 8 gusting 10 22.3
2020-Sep-23 16:15 266 8 gusting 12 22.3
2020-Sep-23 16:10 277 7 gusting 10 22.4
2020-Sep-23 16:05 286 7 gusting 11 22.2
2020-Sep-23 16:00 266 7 gusting 10 22.1
2020-Sep-23 15:55 297 6 gusting 10 22.0
2020-Sep-23 15:50 282 7 gusting 10 21.9
2020-Sep-23 15:45 282 7 gusting 10 21.9
2020-Sep-23 15:40 282 6 gusting 9 21.9
2020-Sep-23 15:35 283 7 gusting 10 21.7
2020-Sep-23 15:30 287 7 gusting 10 21.7
2020-Sep-23 15:25 297 6 gusting 10 21.5
2020-Sep-23 15:20 295 8 gusting 12 21.5
2020-Sep-23 15:15 301 5 gusting 8 21.4
2020-Sep-23 15:10 290 6 gusting 10 21.4
2020-Sep-23 15:05 301 4 gusting 7 21.2
2020-Sep-23 15:00 309 7 gusting 11 20.9
2020-Sep-23 14:55 303 6 gusting 10 21.0
2020-Sep-23 14:50 301 5 gusting 10 20.9
2020-Sep-23 14:45 309 7 gusting 11 20.8
2020-Sep-23 14:40 313 6 gusting 11 20.6
2020-Sep-23 14:35 299 7 gusting 10 20.5
2020-Sep-23 14:30 302 7 gusting 12 20.5
2020-Sep-23 14:25 305 5 gusting 10 20.4
2020-Sep-23 14:20 299 7 gusting 9 20.0
2020-Sep-23 14:15 297 6 gusting 9 19.8
2020-Sep-23 14:10 289 6 gusting 10 19.6
2020-Sep-23 14:05 296 6 gusting 9 19.5
2020-Sep-23 14:00 296 8 gusting 10 19.1